Location: Vesunti
(61.5000°N, 22.8333°E)
Time: 02:39:34
(UTC+00:00)

Resurs 1-4 Rocket - Pass Details

Date: 17 February 2020
Orbit: 800 x 814 km, 98.6° (Epoch: 09 April)

Event Time Altitude Azimuth Distance (km) Brightness Sun altitude
Rises 00:24:17 0° 18° (NNE) 3,351 6.2 -37.4°
Reaches altitude 10° 00:26:39 10° 21° (NNE) 2,416 5.3 -37.3°
Enters shadow 00:29:20 30° 29° (NNE) 1,423 3.8 -37.1°
